"Pseudo-MPEC" for C07RVT1

Created 2019 Apr 22 3:07:06 UT using Find_Orb

Click here for an explanation of pseudo-MPECs

 
 Astrometry: 
     C07RVT1  C2019 04 14.15324 10 28 47.24 -19 42 26.9    ~4J3q       VNEOCP703
     C07RVT1  C2019 04 14.15897 10 28 51.37 -19 41 44.6    ~4E4X 17.8 GVNEOCP703
     C07RVT1  C2019 04 14.16469 10 28 55.52 -19 41 03.0    ~4E4X 17.8 GVNEOCP703
     C07RVT1  C2019 04 14.17042 10 28 59.64 -19 40 21.1    ~4E4X 18.2 GVNEOCP703
     C07RVT1  C2019 04 14.19087710 29 12.17 -19 38 00.2    ~4E5I 17.9 GVNEOCPH01
     C07RVT1  C2019 04 14.19731410 29 16.76 -19 37 12.5    ~4E5I 17.8 GVNEOCPH01
     C07RVT1  C2019 04 14.20481410 29 22.09 -19 36 17.0    ~4E5I 18.0 GVNEOCPH01
     C07RVT1  C2019 04 14.21189310 29 27.12 -19 35 24.4    ~4E5I 17.9 GVNEOCPH01
     C07RVT1  C2019 04 14.27278 10 30 11.66 -19 27 45.6    ~4E6m 18.0 GVNEOCPI52
     C07RVT1  C2019 04 14.27308 10 30 11.87 -19 27 43.4    ~4E6m 18.1 GVNEOCPI52
     C07RVT1  C2019 04 14.27338 10 30 12.09 -19 27 41.1    ~4E6m 18.1 GVNEOCPI52
     C07RVT1  C2019 04 14.27368 10 30 12.29 -19 27 39.0    ~4E6m 18.0 GVNEOCPI52
     C07RVT1 KC2019 04 14NY%*?%PYm=$l@CvE-(2doROpu['f=UEC9HDRpantS4=O3$1ECZLOE23
     C07RVT1 KC2019 04 140vJE#6c36,LTTp,$1TydhpmVOX!r9'G#$L[eH,KO;Zy!^1V7Ox.wE23
     C07RVT1 KC2019 04 14T]UV/H70Ko6(+SmS9s(T-(Vk9f]BdE??\uOkwfU#6l+AyRt8KWG2E23
     C07RVT1 KC2019 04 14_WXRC;t-`nLBC!g@BAstrometryBCX4Nyg[M`*'si^Qu'lp4,;NaE23
     C07RVT1 KC2019 04 14;'87%p-ImhwMO'THK8SFsEp.+redacted;4IYO?NWX?6(ECR9fO@E23
     C07RVT1 pC2019 04 14;0u=[gp(aoxIgL3kaM#Zc,a^s'g9Bwh9Y0c;qXmt2ZFEQ7`$o@B!L01
     C07RVT1 KC2019 04 14F]9?d3`W!yj1+\tSV,gV+HkclickC=1?2W+@7rHtY9_uxvIQ,/?cL01
     C07RVT1 KC2019 04 14:]1+ZNpSF\UWhOn`U44/Nc.J29VA2s5J*@*2k8XMG5ow]0RTxAcLL01
     C07RVT1 KC2019 04 14^KPq?alQZ(!?`QmxduESDB7TOE-J.Y.4d%SKL*_T,$0F0XDNSi'QL01
     C07RVT1 KC2019 04 14.86231010 37 39.31 -18 31 43.3    ~4EMX 18.6 GVNEOCPC95
     C07RVT1 KC2019 04 14.87693410 37 46.11 -18 30 31.5    ~4EMX 18.8 GVNEOCPC95
     C07RVT1 KC2019 04 14fr,;=m?M:j-GoYQUg73w7wU[Kb%-:kY`wm%Ws,qd9r3r#B_oV7,-X31
     C07RVT1 KC2019 04 14Fh3/G@#ly#RPp1-C=XaWPu)T=CIsZ/[Zwnix4ljgIvs-K=%^$64yX31
     C07RVT1 KC2019 04 14sB=EjPU%1,s+aGuOJrGDYLa80?NEsHAjg4ov:(3Zgu[=$,iK*wE;X31
     C07RVT1  C2019 04 15.16137 10 40 30.72 -18 08 13.2    ~4F4I 18.2 GVNEOCPI52
     C07RVT1  C2019 04 15.16323 10 40 31.39 -18 08 05.7    ~4F4I 17.9 GVNEOCPI52
     C07RVT1  C2019 04 15.16359 10 40 31.54 -18 08 04.1    ~4F4I 17.9 GVNEOCPI52
     C07RVT1  C2019 04 15.16396 10 40 31.65 -18 08 02.8    ~4F4I 17.9 GVNEOCPI52
     C07RVT1 KC2019 04 15bdC-]E(Mdob3k9NiMo/2voU!yXyDs;bpHF*MZ5mEk`M53C-v/*EeK63
     C07RVT1 KC2019 04 15+DC^Bpy+f!+\,X`H/+9I3(]063?@Y^KW[0T+c_rejTqKWJZd*OFAK63
     C07RVT1 KC2019 04 159\.3VAq(y-l-8/ldt6sE8DcXs'H']dlhereO@3Ff-Hs2?d,/7R[.K63
     C07RVT1  C2019 04 16.13153 10 47 13.44 -17 13 32.8    ~4G43 20.8 GVNEOCPI52
     C07RVT1  C2019 04 16.13463 10 47 14.12 -17 13 25.8    ~4G43       VNEOCPI52
     C07RVT1  C2019 04 16.14026 10 47 15.25 -17 13 10.2    ~4G43 20.0 GVNEOCPI52
     C07RVT1  C2019 04 16en'F0*MnFk:uf'uBH]Eu]Wo!c$9oNXEB9kSwsGC;r*vHMD+r@BO5246
     C07RVT1  C2019 04 16Clm\tet?-ge`e8abV5;y]hwB:qC,aix+NcYGJ!f1f$rN5OcP(rYv246
     C07RVT1 KC2019 04 162Q:/]x7T^?qqAAr-R^f%gU.P+j+#I'iBR8xP)Rh#I`Dj2QwKqV8LL29
     C07RVT1 KC2019 04 16dBW.M4WUW2w/Ju:-'(0*BTtU`KW[r*E:;-hPewaQNqUI1b*mM46'L29
     C07RVT1 KC2019 04 16bEA4Kyow)o7DYNAV6r*aM-rj7?=KUx4@%?K@nwM)r^sEhZLP,gK3L29
     C07RVT1  C2019 04 19.13287910 57 32.81 -15 49 17.8    ~4J3q 19.8 GVNEOCPH01
     C07RVT1  C2019 04 19.13679110 57 33.04 -15 49 14.1    ~4J3q 20.6 GVNEOCPH01
     C07RVT1  C2019 04 19.14816410 57 33.69 -15 49 03.0    ~4J3q 20.1 GVNEOCPH01
     C07RVT1  C2019 04 19.15380910 57 34.02 -15 48 57.4    ~4J3q 20.0 GVNEOCPH01
     C07RVT1 pC2019 04 19m[2'5,];%.q[)?[ZGR+7QMq$##tk).^dt?yZVn_d@@G_U',t4k1eL01
     C07RVT1 pC2019 04 19?]iB:gC%aTDa4T/s?OmfiHHOB\A.G`Ek(_/p]5uDit_#NIPGxChAL01
     C07RVT1 KC2019 04 21k6qhr8v?xu0ZZ?P=.wTUT($^*W'rxM.o;Zaky9fdt)$l*4C8ixuHH21
     C07RVT1 KC2019 04 21\%%wWk_'`for?h+r(q\Vq@Zi2?explanationWUW!-RIDWNb.+-GH21
     C07RVT1 KC2019 04 212mfUx9]Iu9t;MMlu)JvjVE4hMPvY]xE*(W7+S*nXxvJsYNJI+I^sH21

Station data:
(246) Klet Observatory-KLENOT  (N48.863293 E14.288100)  Czech Republic.
   1.06-m KLENOT telescope.
(703) Catalina Sky Survey  (N32.417006 W110.732640)  US/Arizona.  Observers
   T. A. Pruyne, B. M. Africano, E. J. Christensen, G. A. Farneth, D. C.
   Fuls, A. R. Gibbs, A. D. Grauer, H. Groeller, J. A. Johnson, R. A.
   Kowalski, S. M. Larson, G. J. Leonard, R. L. Seaman, F. C. Shelly. 0.68 m
   Schmidt + 10K CCD.
(C95) SATINO Remote Observatory, Haute Provence  (N43.932042 E5.712390)
   France. 0.60-m f/3.2 Newtonian reflector + CCD.
(E23) Arcadia  (S33.621199 E151.071190)  Australia/NSW.
(H01) Magdalena Ridge Observatory, Socorro  (N33.984833 W107.189333)  US/New
   Mexico.  Observers W. H. Ryan, E. V. Ryan. Measurer W. H. Ryan. 2.4-m
   f/8.9 reflector + CCD.
(H21) Astronomical Research Observatory, Westfield  (N39.483057 W87.968270)
   US/Illinois. 0.76-m f/3.0 astrograph + CCD.
(I52) Steward Observatory, Mt. Lemmon Station  (N32.442547 W110.788920)
   US/Arizona.  Observers T. A. Pruyne, B. M. Africano, E. J. Christensen, G.
   A. Farneth, D. C. Fuls, A. R. Gibbs, A. D. Grauer, H. Groeller, J. A.
   Johnson, R. A. Kowalski, S. M. Larson, G. J. Leonard, R. L. Seaman, F. C.
   Shelly. 1.0-m reflector + CCD.
(K63) G. Pascoli Observatory, Castelvecchio Pascoli  (N44.082410 E10.462000)
   Italy.
(L01) Višnjan Observatory, Tičan  (N45.290900 E13.749300)  Croatia.
   Observers K. Korlević, E. Pettarin. Measurer E. Pettarin. 1.0-m f/2.9
   reflector + CCD.
(L29) Drebach-South Observatory, Windhoek  (S23.460102 E18.016900)  Namibia.
(X31) Galileo Galilei Observatory, Oro Verde  (S31.823022 W60.520660)
   Argentina.

Orbital elements:  C07RVT1
   Perihelion 2019 Jan 19.254416 +/- 0.0145 TT =  6:06:21 (JD 2458502.754416)
Epoch 2019 Apr 21.0 TT = JDT 2458594.5   Earth MOID: 0.0028   Ve: 0.0007
M 113.24934490 +/- 0.013            (J2000 ecliptic)          AutoNEOCP
n   1.23438470 +/- 5e-5             Peri.   46.61656 +/- 0.0012
a   0.86066807 +/- 2.33e-5          Node    19.56004 +/- 0.00026
e   0.3403849 +/- 0.000131          Incl.    5.92699 +/- 0.0030
P   0.80/291.64d           H 25.7   G  0.15   U  6.1  
q 0.56770961 +/- 0.000128    Q 1.15362654 +/- 8.17e-5
From 50 observations 2019 Apr. 14-21; mean residual 0".52
Residuals in arcseconds: 
190414 703  .81+  .60-    190414 L01  .01-  .36-    190416 I52  .02+  1.3-    
190414 703  .08+  .00     190414 L01  .34-  .30-    190416 I52  .37-  .11+    
190414 703  .07+  .09-    190414 L01  .22+  .02-    190416 246  .18-  .11+    
190414 703  .15-  .01-    190414 L01  .36-  .09-    190416 246  2.7+  .71-    
190414 H01  .13+  .05+    190414 C95  1.2-  1.1+    190416 L29  .10-  .44+    
190414 H01  .10+  .05+    190414 C95  1.2+  1.0+    190416 L29  .54-  .07-    
190414 H01  .03+  .10-    190414 X31  .04+  .19-    190416 L29  1.7+  .33-    
190414 H01  .13+  .10-    190414 X31  .04-  .31-    190419 H01  .41-  .34+    
190414 I52  .13-  .09-    190414 X31  .50-  .49-    190419 H01  .41-  .28+    
190414 I52  .13-  .12-    190415 I52  .57-  .02+    190419 H01  .50-  .33+    
190414 I52  .00   .05-    190415 I52  .39-  .05-    190419 H01  .36-  .36+    
190414 I52  .15-  .18-    190415 I52  .06-  .08+    190419 L01  .39+  .56-    
190414 E23  .30+  .01-    190415 I52  .36-  .13-    190419 L01  .28+  .36-    
190414 E23  .22-  .31+    190415 K63  .21-  .12+    190421 H21  .19-  .39+    
190414 E23  .95-  1.1+    190415 K63  .30-  .56-    190421 H21  .26-  .26+    
190414 E23  .26+  .23+    190415 K63  .01-  .07+    190421 H21  .51-  .27+    
190414 E23  .13+  .10+    190416 I52  .52-  .50-    

Ephemerides (geocentric):
Date (UTC) HH   RA              Dec         delta   r     elong  mag " sig PA
---- -- -- --  -------------   -----------  ------ ------ -----  --- ---- ---
2019 04 22 03  11 02 37.012   -15 09 28.44  .05682 1.0476 137.5 21.2 .074  26
2019 04 22 04  11 02 40.389   -15 09 06.02  .05704 1.0478 137.5 21.2 .074  26
2019 04 22 05  11 02 43.748   -15 08 43.77  .05726 1.0480 137.5 21.2 .074  26
2019 04 22 06  11 02 47.092   -15 08 21.69  .05748 1.0481 137.5 21.2 .074  27
2019 04 22 07  11 02 50.418   -15 07 59.78  .05770 1.0483 137.4 21.2 .075  27
2019 04 22 08  11 02 53.729   -15 07 38.04  .05793 1.0484 137.4 21.2 .075  27
2019 04 22 09  11 02 57.023   -15 07 16.46  .05815 1.0486 137.4 21.2 .075  27
2019 04 22 10  11 03 00.301   -15 06 55.04  .05837 1.0488 137.4 21.2 .075  28
2019 04 22 11  11 03 03.564   -15 06 33.78  .05859 1.0489 137.3 21.2 .076  28
2019 04 22 12  11 03 06.812   -15 06 12.68  .05881 1.0491 137.3 21.2 .076  28
2019 04 22 13  11 03 10.044   -15 05 51.74  .05903 1.0493 137.3 21.3 .076  28
2019 04 22 14  11 03 13.261   -15 05 30.95  .05926 1.0494 137.3 21.3 .076  28
2019 04 22 15  11 03 16.463   -15 05 10.32  .05948 1.0496 137.3 21.3 .077  29
2019 04 22 16  11 03 19.651   -15 04 49.83  .05970 1.0498 137.2 21.3 .077  29
2019 04 22 17  11 03 22.825   -15 04 29.50  .05992 1.0499 137.2 21.3 .077  29
2019 04 22 18  11 03 25.984   -15 04 09.32  .06014 1.0501 137.2 21.3 .077  29
2019 04 22 19  11 03 29.129   -15 03 49.28  .06037 1.0503 137.2 21.3 .078  29
2019 04 22 20  11 03 32.260   -15 03 29.39  .06059 1.0504 137.1 21.3 .078  30
2019 04 22 21  11 03 35.378   -15 03 09.64  .06081 1.0506 137.1 21.3 .078  30
2019 04 22 22  11 03 38.482   -15 02 50.04  .06103 1.0508 137.1 21.3 .078  30
2019 04 22 23  11 03 41.573   -15 02 30.58  .06125 1.0509 137.1 21.3 .079  30
2019 04 23 00  11 03 44.651   -15 02 11.25  .06148 1.0511 137.0 21.3 .079  30
2019 04 23 01  11 03 47.716   -15 01 52.07  .06170 1.0512 137.0 21.4 .079  31
2019 04 23 02  11 03 50.768   -15 01 33.02  .06192 1.0514 137.0 21.4 .079  31
2019 04 23 03  11 03 53.808   -15 01 14.11  .06214 1.0516 137.0 21.4 .080  31
2019 04 23 04  11 03 56.835   -15 00 55.33  .06237 1.0517 137.0 21.4 .080  31
2019 04 23 05  11 03 59.850   -15 00 36.69  .06259 1.0519 136.9 21.4 .080  31
2019 04 23 06  11 04 02.852   -15 00 18.17  .06281 1.0521 136.9 21.4 .080  31
2019 04 23 07  11 04 05.843   -14 59 59.79  .06303 1.0522 136.9 21.4 .081  32
2019 04 23 08  11 04 08.823   -14 59 41.53  .06325 1.0524 136.9 21.4 .081  32
2019 04 23 09  11 04 11.790   -14 59 23.41  .06348 1.0526 136.8 21.4 .081  32
2019 04 23 10  11 04 14.746   -14 59 05.41  .06370 1.0527 136.8 21.4 .082  32
2019 04 23 11  11 04 17.691   -14 58 47.53  .06392 1.0529 136.8 21.4 .082  32
2019 04 23 12  11 04 20.625   -14 58 29.78  .06414 1.0530 136.8 21.4 .082  32
2019 04 23 13  11 04 23.547   -14 58 12.15  .06437 1.0532 136.7 21.5 .082  33
2019 04 23 14  11 04 26.459   -14 57 54.65  .06459 1.0534 136.7 21.5 .083  33
2019 04 23 15  11 04 29.360   -14 57 37.26  .06481 1.0535 136.7 21.5 .083  33
2019 04 23 16  11 04 32.251   -14 57 19.99  .06503 1.0537 136.7 21.5 .083  33
2019 04 23 17  11 04 35.131   -14 57 02.85  .06526 1.0538 136.6 21.5 .084  33
2019 04 23 18  11 04 38.000   -14 56 45.82  .06548 1.0540 136.6 21.5 .084  33
2019 04 23 19  11 04 40.860   -14 56 28.90  .06570 1.0542 136.6 21.5 .084  34
2019 04 23 20  11 04 43.710   -14 56 12.10  .06592 1.0543 136.6 21.5 .084  34
2019 04 23 21  11 04 46.549   -14 55 55.41  .06615 1.0545 136.5 21.5 .085  34
2019 04 23 22  11 04 49.379   -14 55 38.84  .06637 1.0547 136.5 21.5 .085  34
2019 04 23 23  11 04 52.200   -14 55 22.38  .06659 1.0548 136.5 21.5 .085  34
2019 04 24 00  11 04 55.011   -14 55 06.03  .06681 1.0550 136.5 21.5 .086  34
2019 04 24 01  11 04 57.812   -14 54 49.79  .06704 1.0551 136.4 21.6 .086  34
2019 04 24 02  11 05 00.605   -14 54 33.65  .06726 1.0553 136.4 21.6 .086  35